timestamp,wind_dir_avg,wind_spd_max_dir,wind_spd_avg,wind_spd_gust,battery_voltage,lat,long
2018-04-18 00:00:00+00:00,158.0,160.0,1.71,1.95,,47.59359,-54.27349
2018-04-18 00:10:00+00:00,151.0,152.0,2.08,2.18,,47.59359,-54.27349
2018-04-18 00:20:00+00:00,150.0,157.0,1.63,1.98,,47.59359,-54.27349
2018-04-18 00:30:00+00:00,131.0,125.0,2.13,2.59,,47.59359,-54.27349
2018-04-18 00:40:00+00:00,100.0,117.0,1.45,2.44,,47.59359,-54.27349
2018-04-18 00:50:00+00:00,93.0,96.0,1.48,1.89,,47.59359,-54.27349
2018-04-18 01:00:00+00:00,111.0,119.0,2.21,3.44,,47.59359,-54.27349
2018-04-18 01:10:00+00:00,97.0,76.0,2.03,2.75,,47.59359,-54.27349
2018-04-18 01:20:00+00:00,105.0,148.0,1.86,3.3,,47.59359,-54.27349
2018-04-18 01:30:00+00:00,104.0,100.0,2.69,4.18,,47.59359,-54.27349
2018-04-18 01:40:00+00:00,124.0,128.0,2.44,3.4,,47.59359,-54.27349
2018-04-18 01:50:00+00:00,129.0,126.0,3.28,3.75,,47.59359,-54.27349
2018-04-18 02:00:00+00:00,137.0,137.0,4.37,4.91,,47.59359,-54.27349
2018-04-18 02:10:00+00:00,137.0,133.0,4.42,5.15,,47.59359,-54.27349
2018-04-18 02:20:00+00:00,110.0,94.0,2.51,3.64,,47.59359,-54.27349
2018-04-18 02:30:00+00:00,137.0,136.0,4.62,5.26,,47.59359,-54.27349
2018-04-18 02:40:00+00:00,116.0,128.0,3.23,4.83,,47.59359,-54.27349
2018-04-18 02:50:00+00:00,131.0,140.0,3.72,5.04,,47.59359,-54.27349
2018-04-18 03:00:00+00:00,119.0,128.0,2.52,4.73,,47.59359,-54.27349
2018-04-18 03:10:00+00:00,130.0,125.0,3.27,4.99,,47.59359,-54.27349
2018-04-18 03:20:00+00:00,145.0,150.0,3.34,4.07,,47.59359,-54.27349
2018-04-18 03:30:00+00:00,143.0,152.0,3.26,3.82,,47.59359,-54.27349
2018-04-18 03:40:00+00:00,151.0,147.0,3.1,3.66,,47.59359,-54.27349
2018-04-18 03:50:00+00:00,162.0,162.0,3.63,4.12,,47.59359,-54.27349
2018-04-18 04:00:00+00:00,159.0,161.0,2.72,2.9,,47.59359,-54.27349
2018-04-18 04:10:00+00:00,158.0,158.0,3.93,4.41,,47.59359,-54.27349
2018-04-18 04:20:00+00:00,181.0,182.0,3.79,4.07,,47.59359,-54.27349
2018-04-18 04:30:00+00:00,173.0,168.0,5.15,6.31,,47.59359,-54.27349
2018-04-18 04:40:00+00:00,167.0,170.0,5.52,6.31,,47.59359,-54.27349
2018-04-18 04:50:00+00:00,160.0,151.0,3.91,4.23,,47.59359,-54.27349
2018-04-18 05:00:00+00:00,161.0,157.0,4.32,4.91,,47.59359,-54.27349
2018-04-18 05:10:00+00:00,154.0,150.0,4.11,5.14,,47.59359,-54.27349
2018-04-18 05:20:00+00:00,156.0,155.0,3.39,3.7,,47.59359,-54.27349
2018-04-18 05:30:00+00:00,156.0,156.0,4.42,4.9,,47.59359,-54.27349
2018-04-18 05:40:00+00:00,166.0,158.0,4.81,5.63,,47.59359,-54.27349
2018-04-18 05:50:00+00:00,168.0,170.0,4.25,4.88,,47.59359,-54.27349
2018-04-18 06:00:00+00:00,150.0,151.0,4.37,5.3,,47.59359,-54.27349
2018-04-18 06:10:00+00:00,141.0,139.0,5.54,6.53,,47.59359,-54.27349
2018-04-18 06:20:00+00:00,135.0,142.0,5.96,6.98,,47.59359,-54.27349
2018-04-18 06:30:00+00:00,125.0,128.0,3.89,5.16,,47.59359,-54.27349
2018-04-18 06:40:00+00:00,93.0,84.0,4.12,5.12,,47.59359,-54.27349
2018-04-18 06:50:00+00:00,83.0,81.0,5.96,6.74,,47.59359,-54.27349
2018-04-18 07:00:00+00:00,102.0,105.0,3.87,5.73,,47.59359,-54.27349
2018-04-18 07:10:00+00:00,103.0,101.0,3.61,5.9,,47.59359,-54.27349
2018-04-18 07:20:00+00:00,92.0,95.0,3.7,6.37,,47.59359,-54.27349
2018-04-18 07:30:00+00:00,99.0,90.0,3.7,5.94,,47.59359,-54.27349
2018-04-18 07:40:00+00:00,85.0,75.0,3.87,5.25,,47.59359,-54.27349
2018-04-18 07:50:00+00:00,80.0,76.0,4.33,5.0,,47.59359,-54.27349
2018-04-18 08:00:00+00:00,77.0,83.0,4.2,5.05,,47.59359,-54.27349
2018-04-18 08:10:00+00:00,82.0,78.0,4.48,6.24,,47.59359,-54.27349
2018-04-18 08:20:00+00:00,83.0,89.0,5.14,6.82,,47.59359,-54.27349
2018-04-18 08:30:00+00:00,89.0,97.0,5.29,6.87,,47.59359,-54.27349
2018-04-18 08:40:00+00:00,86.0,81.0,4.72,6.35,,47.59359,-54.27349
2018-04-18 08:50:00+00:00,84.0,89.0,5.89,7.36,,47.59359,-54.27349
2018-04-18 09:00:00+00:00,84.0,78.0,5.16,6.8,,47.59359,-54.27349
2018-04-18 09:10:00+00:00,88.0,69.0,4.39,6.13,,47.59359,-54.27349
2018-04-18 09:20:00+00:00,88.0,87.0,4.33,6.86,,47.59359,-54.27349
2018-04-18 09:30:00+00:00,106.0,125.0,4.66,8.23,,47.59359,-54.27349
2018-04-18 09:40:00+00:00,114.0,116.0,4.66,7.09,,47.59359,-54.27349
2018-04-18 09:50:00+00:00,130.0,144.0,5.4,7.64,,47.59359,-54.27349
2018-04-18 10:00:00+00:00,142.0,147.0,5.46,6.41,,47.59359,-54.27349
2018-04-18 10:10:00+00:00,136.0,130.0,6.3,7.76,,47.59359,-54.27349
2018-04-18 10:20:00+00:00,144.0,153.0,7.27,9.86,,47.59359,-54.27349
2018-04-18 10:30:00+00:00,128.0,110.0,7.7,10.61,,47.59359,-54.27349
2018-04-18 10:40:00+00:00,123.0,105.0,5.58,7.76,,47.59359,-54.27349
2018-04-18 10:50:00+00:00,107.0,105.0,6.1,10.13,,47.59359,-54.27349
2018-04-18 11:00:00+00:00,90.0,78.0,4.98,6.98,,47.59359,-54.27349
2018-04-18 11:30:00+00:00,28.0,31.0,4.28,4.98,,47.59359,-54.27349
2018-04-18 11:40:00+00:00,7.0,7.0,4.09,4.43,,47.59359,-54.27349
2018-04-18 12:10:00+00:00,90.0,79.0,3.94,5.21,,47.59359,-54.27349
2018-04-18 12:20:00+00:00,95.0,103.0,3.54,5.13,,47.59359,-54.27349
2018-04-18 12:30:00+00:00,17.0,28.0,2.91,3.66,,47.59359,-54.27349
2018-04-18 12:40:00+00:00,345.0,346.0,5.85,6.31,,47.59359,-54.27349
2018-04-18 12:50:00+00:00,348.0,352.0,4.17,5.08,,47.59359,-54.27349
2018-04-18 13:00:00+00:00,14.0,9.0,3.62,4.57,,47.59359,-54.27349
2018-04-18 13:10:00+00:00,3.0,356.0,3.41,4.82,,47.59359,-54.27349
2018-04-18 13:20:00+00:00,40.0,23.0,1.97,4.67,,47.59359,-54.27349
2018-04-18 13:30:00+00:00,151.0,163.0,3.53,6.22,,47.59359,-54.27349
2018-04-18 13:40:00+00:00,155.0,157.0,7.53,10.32,,47.59359,-54.27349
2018-04-18 14:10:00+00:00,175.0,176.0,9.72,9.72,,47.59359,-54.27349
2018-04-18 15:10:00+00:00,194.0,185.0,8.08,9.05,,47.59359,-54.27349
2018-04-18 15:20:00+00:00,195.0,196.0,8.99,10.09,,47.59359,-54.27349
2018-04-18 15:30:00+00:00,201.0,198.0,6.69,7.42,,47.59359,-54.27349
2018-04-18 15:50:00+00:00,183.0,181.0,5.9,6.97,,47.59359,-54.27349
2018-04-18 16:10:00+00:00,184.0,184.0,6.86,7.12,,47.59359,-54.27349
2018-04-18 16:20:00+00:00,192.0,195.0,4.67,5.23,,47.59359,-54.27349
2018-04-18 16:30:00+00:00,198.0,199.0,4.67,6.2,,47.59359,-54.27349
2018-04-18 16:50:00+00:00,197.0,196.0,6.67,7.11,,47.59359,-54.27349
2018-04-18 17:00:00+00:00,208.0,208.0,5.12,5.47,,47.59359,-54.27349
2018-04-18 17:10:00+00:00,254.0,249.0,3.26,4.53,,47.59359,-54.27349
2018-04-18 17:20:00+00:00,244.0,241.0,5.75,7.53,,47.59359,-54.27349
2018-04-18 17:30:00+00:00,246.0,244.0,4.8,5.81,,47.59359,-54.27349
2018-04-18 17:40:00+00:00,225.0,228.0,5.74,7.44,,47.59359,-54.27349
2018-04-18 17:50:00+00:00,232.0,233.0,5.39,6.46,,47.59359,-54.27349
2018-04-18 18:00:00+00:00,233.0,238.0,5.59,6.04,,47.59359,-54.27349
2018-04-18 18:10:00+00:00,227.0,229.0,6.8,7.73,,47.59359,-54.27349
2018-04-18 18:20:00+00:00,229.0,222.0,5.63,6.23,,47.59359,-54.27349
2018-04-18 18:30:00+00:00,231.0,230.0,5.53,6.46,,47.59359,-54.27349
2018-04-18 18:40:00+00:00,231.0,231.0,6.78,7.58,,47.59359,-54.27349
2018-04-18 18:50:00+00:00,225.0,221.0,6.74,7.2,,47.59359,-54.27349
2018-04-18 19:00:00+00:00,232.0,237.0,7.75,9.11,,47.59359,-54.27349
2018-04-18 19:10:00+00:00,230.0,230.0,6.62,7.5,,47.59359,-54.27349
2018-04-18 19:20:00+00:00,227.0,228.0,5.98,6.35,,47.59359,-54.27349
2018-04-18 19:30:00+00:00,224.0,224.0,5.67,6.15,,47.59359,-54.27349
2018-04-18 19:40:00+00:00,215.0,215.0,4.76,5.13,,47.59359,-54.27349
2018-04-18 19:50:00+00:00,205.0,207.0,3.41,3.94,,47.59359,-54.27349
2018-04-18 20:00:00+00:00,207.0,208.0,5.13,5.39,,47.59359,-54.27349
2018-04-18 20:10:00+00:00,206.0,209.0,5.28,5.78,,47.59359,-54.27349
2018-04-18 20:20:00+00:00,210.0,210.0,5.35,5.66,,47.59359,-54.27349
2018-04-18 20:30:00+00:00,218.0,218.0,5.16,5.31,,47.59359,-54.27349
2018-04-18 20:40:00+00:00,217.0,218.0,5.62,5.89,,47.59359,-54.27349
2018-04-18 20:50:00+00:00,204.0,213.0,2.83,3.73,,47.59359,-54.27349
2018-04-18 21:00:00+00:00,232.0,240.0,8.93,10.93,,47.59359,-54.27349
2018-04-18 21:10:00+00:00,220.0,231.0,8.69,9.99,,47.59359,-54.27349
2018-04-18 21:20:00+00:00,225.0,230.0,9.27,10.56,,47.59359,-54.27349
2018-04-18 21:30:00+00:00,224.0,232.0,9.33,11.06,,47.59359,-54.27349
2018-04-18 21:40:00+00:00,229.0,235.0,9.36,11.0,,47.59359,-54.27349
2018-04-18 21:50:00+00:00,237.0,240.0,9.28,10.81,,47.59359,-54.27349
2018-04-18 22:00:00+00:00,241.0,244.0,10.91,12.07,,47.59359,-54.27349
2018-04-18 22:10:00+00:00,248.0,260.0,9.37,12.19,,47.59359,-54.27349
2018-04-18 22:20:00+00:00,252.0,256.0,8.71,9.64,,47.59359,-54.27349
2018-04-18 22:30:00+00:00,262.0,262.0,8.27,9.39,,47.59359,-54.27349
2018-04-18 22:40:00+00:00,262.0,267.0,7.29,8.16,,47.59359,-54.27349
2018-04-18 22:50:00+00:00,245.0,250.0,5.01,5.67,,47.59359,-54.27349
2018-04-18 23:00:00+00:00,227.0,231.0,6.65,7.52,,47.59359,-54.27349
2018-04-18 23:10:00+00:00,247.0,250.0,6.55,7.74,,47.59359,-54.27349
2018-04-18 23:20:00+00:00,286.0,284.0,2.59,3.18,,47.59359,-54.27349
2018-04-18 23:30:00+00:00,223.0,231.0,3.79,4.39,,47.59359,-54.27349
2018-04-18 23:40:00+00:00,236.0,238.0,6.78,7.79,,47.59359,-54.27349
2018-04-18 23:50:00+00:00,238.0,236.0,6.38,7.37,,47.59359,-54.27349
